Stations météo

réclame
Mon MeteoGroup
Hoburg A, Suède (2679): Température de l'air & dewpoint: 19.02.2018 06:00:00 - 25.02.2018 06:00:00 (CET)Hoburg A, Suède (2679): Vitesse du vent & gusts: 19.02.2018 06:00:00 - 25.02.2018 06:00:00 (CET)Hoburg A, Suède (2679): Direction du vent: 19.02.2018 06:00:00 - 25.02.2018 06:00:00 (CET)Hoburg A, Suède (2679): reduced air pressure: 19.02.2018 06:00:00 - 25.02.2018 06:00:00 (CET)Hoburg A, Suède (2679): visibility: 19.02.2018 06:00:00 - 25.02.2018 06:00:00 (CET)Hoburg A, Suède (2679): Quantités de précipitations: 19.02.2018 06:00:00 - 25.02.2018 06:00:00 (CET)
Date & Time tt [°C] td [°C] ff [km/h] ff [knt] fx [km/h] fx [knt] dd ppp [hPa] vv [km] rr [mm]
25.02.2018 06:00:00 -6,1 -9,5 21 11 35 19 NNE 1035,0 10 0,0
25.02.2018 05:00:00 -5,9 -9,6 23 12 34 18 N 1034,8 50 0,0
25.02.2018 04:00:00 -5,8 -10,2 22 12 32 17 NNE 1034,9 50 0,0
25.02.2018 03:00:00 -5,7 -9,9 19 10 30 16 NNE 1035,1 50 0,0
25.02.2018 02:00:00 -5,8 -9,5 16 9 31 17 NNE 1035,3 50 0,0
25.02.2018 01:00:00 -5,6 -9,7 19 10 35 19 NNE 1035,6 50 0,0
25.02.2018 00:00:00 -5,8 -10,0 18 10 35 19 NNE 1035,7 50 0,0
24.02.2018 23:00:00 -5,8 -9,0 21 11 32 18 NNE 1035,7 50 0,0
24.02.2018 22:00:00 -6,1 -10,0 19 11 29 16 NNE 1035,6 50 0,0
24.02.2018 21:00:00 -6,1 -9,5 19 10 29 15 NNE 1035,8 41 0,0
24.02.2018 20:00:00 -6,9 -10,2 18 10 33 18 NNE 1035,7 50 0,0
24.02.2018 19:00:00 -6,5 -9,7 21 12 33 18 NNE 1035,8 50 0,0
24.02.2018 18:00:00 -5,9 -9,1 17 9 24 13 N 1035,9 50 0,0
24.02.2018 17:00:00 -5,8 -9,5 13 7 24 13 NNE 1036,0 50 0,0
24.02.2018 16:00:00 -4,6 -8,7 16 9 28 15 N 1036,0 26 0,0
24.02.2018 15:00:00 -4,1 -10,1 16 9 32 17 NNE 1036,0 50 0,0
24.02.2018 14:00:00 -4,4 -11,0 21 11 32 17 NE 1036,0 50 0,0
24.02.2018 13:00:00 -4,3 -9,9 18 10 32 17 NE 1036,0 48 0,0
24.02.2018 12:00:00 -3,9 -9,9 21 11 33 18 NE 1036,1 50 0,0
24.02.2018 11:00:00 -4,4 -9,4 21 12 33 18 ENE 1036,0 13 0,0
24.02.2018 10:00:00 -5,2 -7,2 15 8 33 18 NNE 1035,6 8 0,0
24.02.2018 09:00:00 -4,8 -8,7 16 8 33 18 N 1035,2 31 0,0
24.02.2018 08:00:00 -4,8 -10,8 20 11 38 20 ENE 1034,8 50 0,0
24.02.2018 07:00:00 -4,8 -10,8 21 11 38 20 NE 1034,4 50 0,0
24.02.2018 06:00:00 -4,7 -10,7 24 13 36 20 NE 1033,8 50 0,0
24.02.2018 05:00:00 -4,6 -10,4 23 12 44 24 NE 1033,0 37 0,0
24.02.2018 04:00:00 -4,4 -10,6 29 16 44 24 NE 1032,4 48 0,0
24.02.2018 03:00:00 -4,5 -10,1 21 11 43 23 NE 1031,7 50 0,0
24.02.2018 02:00:00 -5,0 -8,2 24 13 36 19 NNE 1031,4 47 0,0
24.02.2018 01:00:00 -5,3 -6,7 19 10 36 19 NNE 1030,9 7 0,2
24.02.2018 00:00:00 -5,1 -6,5 21 11 32 18 NNE 1030,4 3,9 0,3
23.02.2018 23:00:00 -5,0 -6,5 21 11 34 18 NNE 1030,0 3,1 0,1
23.02.2018 22:00:00 -4,7 -9,3 19 10 37 20 NNE 1029,4 50 0,0
23.02.2018 21:00:00 -5,0 -7,9 21 12 43 23 N 1028,8 50 0,1
23.02.2018 20:00:00 -4,6 -8,5 30 16 43 23 NNE 1028,3 20 0,0
23.02.2018 19:00:00 -4,0 -9,0 23 12 37 20 N 1027,4 50 0,0
23.02.2018 18:00:00 -3,6 -7,2 23 12 36 20 NNE 1026,9 50 0,0
23.02.2018 17:00:00 -2,6 -6,4 19 10 37 20 NNE 1026,2 50 0,0
23.02.2018 16:00:00 -2,1 -6,3 21 12 37 20 N 1025,7 50 0,0
23.02.2018 15:00:00 - - - - - - - - - -
23.02.2018 14:00:00 -1,0 -2,0 16 8 31 17 NNE 1025,0 44 0,4
23.02.2018 13:00:00 -0,9 -1,7 17 9 31 17 NNE 1025,0 5 1,0
23.02.2018 12:00:00 -0,7 -2,1 21 11 30 16 NNW 1025,2 12 0,2
23.02.2018 11:00:00 -1,4 -2,4 14 8 35 19 NNW 1025,3 6 0,0
23.02.2018 10:00:00 -1,9 -3,6 23 12 37 20 NW 1025,7 11 0,0
23.02.2018 09:00:00 -1,6 -4,4 28 15 38 21 WNW 1025,6 50 0,0
23.02.2018 08:00:00 -1,4 -3,9 29 16 38 21 WNW 1025,6 50 0,0
23.02.2018 07:00:00 -1,6 -3,2 28 15 36 19 WNW 1025,9 3,9 0,2
23.02.2018 06:00:00 -1,9 -3,6 26 14 36 19 W 1026,3 4,9 0,1
23.02.2018 05:00:00 -1,9 -3,9 25 14 33 18 W 1026,6 5 0,0
23.02.2018 04:00:00 -1,5 -4,7 22 12 29 16 W 1027,1 10 0,0
23.02.2018 03:00:00 -1,9 -4,9 20 11 28 15 WSW 1027,6 39 0,0
23.02.2018 02:00:00 -2,2 -6,6 19 10 27 14 WSW 1027,9 47 0,0
23.02.2018 01:00:00 -2,7 -7,2 16 9 22 12 SW 1028,4 50 0,0
23.02.2018 00:00:00 -3,1 -8,0 13 7 17 9 SW 1028,7 50 0,0
22.02.2018 23:00:00 -3,6 -7,9 9 5 14 8 SW 1029,2 50 0,0
22.02.2018 22:00:00 -3,6 -8,6 9 5 12 7 SSW 1029,4 50 0,0
22.02.2018 21:00:00 -4,0 -8,7 5 3 8 4 SSW 1029,7 50 0,0
22.02.2018 20:00:00 -3,9 -9,3 0 0 4 2 N 1029,8 50 0,0
22.02.2018 19:00:00 -3,8 -9,4 3 1 4 2 ESE 1029,8 50 0,0
22.02.2018 18:00:00 -3,8 -9,6 0 0 7 4 N 1030,0 50 0,0
22.02.2018 17:00:00 -3,8 -9,2 3 1 10 6 SSE 1030,0 50 0,0
22.02.2018 16:00:00 -2,8 -9,3 6 3 14 8 SE 1029,9 50 0,0
22.02.2018 15:00:00 -2,5 -9,4 7 4 18 10 SE 1030,3 50 0,0
22.02.2018 14:00:00 -2,5 -9,2 8 4 20 11 ESE 1030,6 50 0,0
22.02.2018 13:00:00 -1,8 -8,8 10 6 20 11 SE 1030,9 45 0,0
22.02.2018 12:00:00 -2,9 -9,0 13 7 22 12 SE 1030,8 50 0,0
22.02.2018 11:00:00 -3,0 -8,7 14 8 24 13 ESE 1031,0 50 0,0
22.02.2018 10:00:00 -2,5 -8,2 15 8 24 13 ESE 1030,9 50 0,0
22.02.2018 09:00:00 -3,4 -9,0 14 8 23 13 ESE 1030,6 50 0,0
22.02.2018 08:00:00 -3,5 -8,6 15 8 21 12 ESE 1030,3 50 0,0
22.02.2018 07:00:00 -4,5 -9,3 11 6 20 11 ESE 1029,9 50 0,0
22.02.2018 06:00:00 -4,3 -9,5 13 7 20 11 E 1029,7 50 0,0
22.02.2018 05:00:00 -4,4 -9,0 14 7 20 11 ESE 1029,6 50 0,0
22.02.2018 04:00:00 -4,0 -8,5 13 7 24 13 ESE 1029,5 50 0,0
22.02.2018 03:00:00 -4,0 -8,5 14 8 25 13 ESE 1029,2 50 0,0
22.02.2018 02:00:00 -3,4 -7,5 18 10 26 14 ESE 1029,0 50 0,0
22.02.2018 01:00:00 -3,1 -7,3 18 10 26 14 ESE 1029,1 50 0,0
22.02.2018 00:00:00 -2,6 -6,2 18 10 26 14 ESE 1028,8 50 0,0
21.02.2018 23:00:00 -2,4 -5,5 18 10 28 15 ESE 1028,5 11 0,0
21.02.2018 22:00:00 -2,5 -5,0 18 10 28 15 ESE 1028,2 12 0,0
21.02.2018 21:00:00 -2,7 -4,6 16 8 21 12 ESE 1027,8 21 0,0
21.02.2018 20:00:00 -3,7 -7,1 7 4 11 6 NNE 1027,5 50 0,0
21.02.2018 19:00:00 -3,7 -6,5 9 5 11 6 NE 1027,1 50 0,0
21.02.2018 18:00:00 -3,4 -6,5 6 3 11 6 NE 1026,7 50 0,0
21.02.2018 17:00:00 -3,0 -6,1 6 4 12 6 NNE 1026,4 50 0,0
21.02.2018 16:00:00 -2,5 -6,1 8 4 13 7 N 1026,2 50 0,0
21.02.2018 15:00:00 -2,1 -6,8 8 4 13 7 N 1026,0 50 0,0
21.02.2018 14:00:00 -1,6 -6,9 8 4 13 7 N 1026,2 50 0,0
21.02.2018 13:00:00 -1,7 -6,6 8 4 13 7 N 1026,5 50 0,0
21.02.2018 12:00:00 -2,0 -7,3 8 4 16 8 N 1026,3 50 0,0
21.02.2018 11:00:00 -2,0 -5,8 10 6 17 9 NE 1026,2 50 0,0
21.02.2018 10:00:00 -3,5 -6,3 6 4 17 9 NNE 1026,2 50 0,0
21.02.2018 09:00:00 -3,4 -5,9 11 6 17 9 N 1026,1 50 0,0
21.02.2018 08:00:00 -3,6 -4,7 13 7 17 9 NE 1025,5 19 0,0
21.02.2018 07:00:00 -3,4 -4,2 6 4 15 8 NE 1025,5 9 0,2
21.02.2018 06:00:00 -3,3 -4,1 8 4 15 8 NE 1025,6 4,0 0,2
21.02.2018 05:00:00 -3,2 -4,0 5 3 11 6 NE 1025,9 7 0,0
21.02.2018 04:00:00 -3,0 -3,8 3 2 12 7 N 1026,0 9 0,3
21.02.2018 03:00:00 -3,3 -4,1 5 3 12 7 NNE 1026,5 3,4 0,3
21.02.2018 02:00:00 -3,2 -4,9 6 3 11 6 NE 1026,7 4,3 0,0
21.02.2018 01:00:00 -3,2 -5,8 9 5 12 6 N 1026,9 50 0,0
21.02.2018 00:00:00 -2,5 -4,8 9 5 13 7 N 1027,0 20 0,0
20.02.2018 23:00:00 -3,1 -4,5 9 5 14 8 N 1026,9 47 0,0
20.02.2018 22:00:00 -3,0 -4,4 9 5 14 8 NNE 1027,0 45 0,0
20.02.2018 21:00:00 -3,1 -4,2 10 6 16 9 NNE 1027,0 28 0,0
20.02.2018 20:00:00 -3,0 -4,1 10 5 16 9 NNE 1027,0 23 0,0
20.02.2018 19:00:00 -2,9 -4,3 10 5 12 6 NE 1026,8 40 0,0
20.02.2018 18:00:00 -2,7 -4,3 9 5 14 8 NNE 1026,6 48 0,0
20.02.2018 17:00:00 -2,5 -4,8 8 4 14 8 NE 1026,3 49 0,0
20.02.2018 16:00:00 -1,4 -4,9 8 4 13 7 NE 1026,4 50 0,0
20.02.2018 15:00:00 -0,9 -4,3 9 5 18 10 NE 1026,7 50 0,0
20.02.2018 14:00:00 -0,6 -3,8 10 6 21 11 NE 1026,7 49 0,0
20.02.2018 13:00:00 -0,4 -3,3 14 8 23 12 ENE 1026,6 41 0,0
20.02.2018 12:00:00 -0,6 -3,8 16 8 23 12 NE 1026,8 48 0,0
20.02.2018 11:00:00 -1,0 -3,7 13 7 20 11 NNE 1026,8 43 0,0
20.02.2018 10:00:00 -1,6 -3,9 10 6 18 10 NNE 1026,6 38 0,0
20.02.2018 09:00:00 -1,2 -3,7 8 5 21 12 NE 1026,5 33 0,0
20.02.2018 08:00:00 -1,5 -4,0 12 6 21 12 ENE 1026,3 43 0,0
20.02.2018 07:00:00 -1,7 -3,9 15 8 23 13 ENE 1026,0 38 0,0
20.02.2018 06:00:00 -1,6 -3,9 13 7 26 14 ENE 1025,9 31 0,0
20.02.2018 05:00:00 -1,3 -3,3 14 8 26 14 ENE 1025,9 21 0,0
20.02.2018 04:00:00 -1,2 -3,4 19 10 31 17 E 1025,5 19 0,0
20.02.2018 03:00:00 -1,3 -2,4 19 10 32 17 E 1025,6 2,6 0,0
20.02.2018 02:00:00 -1,1 -2,8 21 11 32 17 E 1025,3 11 0,0
20.02.2018 01:00:00 -1,1 -2,7 23 12 33 18 E 1025,3 12 0,0
20.02.2018 00:00:00 -1,0 -2,4 25 13 33 18 ENE 1025,2 12 0,0
19.02.2018 23:00:00 -0,7 -1,5 21 12 34 18 ENE 1025,0 9 0,0
19.02.2018 22:00:00 -0,2 -0,6 23 13 34 18 ENE 1024,7 5 0,1
19.02.2018 21:00:00 0,0 -0,3 18 10 29 16 ENE 1024,5 5 0,1
19.02.2018 20:00:00 0,3 0,0 10 5 13 7 NE 1024,3 3,5 0,2
19.02.2018 19:00:00 0,2 -0,1 10 5 13 7 NE 1024,1 3,3 0,5
19.02.2018 18:00:00 0,2 -0,2 7 4 8 5 ENE 1023,9 1,6 0,4
19.02.2018 17:00:00 0,1 -0,3 2 1 9 5 SE 1023,6 1,1 1,2
19.02.2018 16:00:00 0,3 -0,4 3 2 11 6 NNE 1023,3 1,6 1,1
19.02.2018 15:00:00 1,3 0,6 8 4 12 6 SE 1023,1 4,6 0,1
19.02.2018 14:00:00 1,6 0,7 6 3 12 6 SSE 1022,8 8 0,0
19.02.2018 13:00:00 1,4 0,8 9 5 12 6 SSE 1022,8 6 0,0
19.02.2018 12:00:00 1,1 0,7 7 4 11 6 SE 1023,0 4,7 0,0
19.02.2018 11:00:00 0,9 0,5 6 3 9 5 S 1022,8 3,2 0,1
19.02.2018 10:00:00 0,4 0,0 5 3 7 4 S 1022,7 1,8 0,4
19.02.2018 09:00:00 0,3 -0,3 4 2 13 7 SW 1022,5 1,5 0,8
19.02.2018 08:00:00 0,4 -0,3 3 2 20 11 WSW 1022,3 1,7 0,4
19.02.2018 07:00:00 0,6 -0,7 9 5 20 11 W 1022,1 3,3 0,1
19.02.2018 06:00:00 0,8 -0,7 5 3 18 10 WSW 1022,0 13 0,0

tt = Température de l'air
td = dewpoint
ff = Vitesse du vent
fx = gusts
dd = Direction du vent
ppp = reduced air pressure
vv = visibility
rr = Quantités de précipitations

stations d'obs. à proximité